This demonstration page uses our WeatherBlox Daily Observations layout. Learn more.

Left ArrowRight Arrow

31.84235, -102.49876

Hourly Observations for April 30, 2015

Temp ( °F °C ) Dew Point ( °F °C ) Humidity (%) Winds ( mph kmh ) Pressure ( in mb ) Visibility ( mi km ) Precip ( " mm )
12:53 am 00:53 Clear 55 12.8 29 -1.7 37 37 SSE 6 9 29.95 1014 10 16 0.00 0.00
1:53 am 01:53 Clear 57 13.9 28 -2.2 33 33 SSW 5 7 29.93 1014 10 16 0.00 0.00
2:53 am 02:53 Clear 55 12.8 28 -2.2 35 35 SW 3 6 29.91 1013 10 16 0.00 0.00
3:53 am 03:53 Clear 52 11.1 29 -1.7 41 41 WSW 3 6 29.91 1013 10 16 0.00 0.00
4:53 am 04:53 Clear 50 10 29 -1.7 44 44 SW 5 7 29.92 1013 10 16 0.00 0.00
5:53 am 05:53 Clear 50 10 29 -1.7 44 44 SW 5 7 29.92 1013 10 16 0.00 0.00
6:53 am 06:53 Clear 47 8.3 30 -1.1 52 52 NW 9 15 29.93 1013 10 16 0.00 0.00
7:53 am 07:53 Sunny 50 10 31 -0.6 48 48 W 5 7 29.94 1014 10 16 0.00 0.00
8:53 am 08:53 Sunny 58 14.4 32 0 38 38 SW 8 13 29.95 1014 10 16 0.00 0.00
9:53 am 09:53 Sunny 66 18.9 31 -0.6 27 27 SSW 10 17 29.95 1014 10 16 0.00 0.00
10:53 am 10:53 Sunny 71 21.7 29 -1.7 21 21 SSW 14 22 29.95 1014 10 16 0.00 0.00
11:53 am 11:53 Sunny 74 23.3 26 -3.3 17 17 S 14 22 29.94 1014 10 16 0.00 0.00
12:53 pm 12:53 Sunny 75 23.9 24 -4.4 15 15 S 8 13 29.94 1014 10 16 0.00 0.00
1:53 pm 13:53 Sunny 76 24.4 22 -5.6 13 13 S 12 19 29.92 1013 10 16 0.00 0.00
2:53 pm 14:53 Sunny 79 26.1 21 -6.1 11 11 SSW 9 15 29.90 1013 10 16 0.00 0.00
3:53 pm 15:53 Sunny 79 26.1 21 -6.1 11 11 VRB 7 11 29.88 1012 10 16 0.00 0.00
4:53 pm 16:53 Sunny 80 26.7 21 -6.1 11 11 S 9 15 29.85 1011 10 16 0.00 0.00
5:53 pm 17:53 Sunny 81 27.2 18 -7.8 9 9 SSW 13 20 29.84 1011 10 16 0.00 0.00
6:53 pm 18:53 Sunny 80 26.7 19 -7.2 10 10 S 7 11 29.85 1011 10 16 0.00 0.00
7:53 pm 19:53 Sunny 78 25.6 20 -6.7 11 11 S 6 9 29.85 1011 10 16 0.00 0.00
8:53 pm 20:53 Clear 71 21.7 21 -6.1 15 15 SSE 6 9 29.86 1011 10 16 0.00 0.00
9:53 pm 21:53 Clear 66 18.9 24 -4.4 20 20 SSE 8 13 29.88 1012 10 16 0.00 0.00
10:53 pm 22:53 Clear 68 20 22 -5.6 17 17 SSE 12 19 29.88 1012 10 16 0.00 0.00
11:53 pm 23:53 Clear 67 19.4 25 -3.9 20 20 S 13 20 29.88 1012 10 16 0.00 0.00

Powered by AerisWeather